Location: Novokuznetsk
(53.7500°N, 87.1000°E)
Time: 20:21:22
(UTC+06:00)

ISS - Pass Details

Date: 04 March 2021
Orbit: 418 x 422 km, 51.6° (Epoch: 16 April)

Event Time Altitude Azimuth Distance (km) Brightness Sun altitude
Exits shadow 04:26:41 44° 122° (ESE) 587 -2.9 -22.2°
Drops below altitude 10° 04:29:15 10° 94° (E) 1,500 0.0 -21.8°
Sets 04:31:22 0° 91° (E) 2,365 1.3 -21.5°
